WJA146 CYYC-CYEG

Flight info

Callsign WJA146
Flight time 0h 33m
Altitude 23000
Route BITGA Q995 OILRS OILRS2
Aircraft B738/M-VGDW/C

Departure

Time 2026-05-06 03:10
Airport Calgary International Airport (CYYC)

Arrival

Time 2026-05-06 03:43
Airport Edmonton International Airport (CYEG)
Time Latitude Longitude Altitude Speed Heading
2026-05-06 02:39 51.12952 -114.00828 3567 ft 0 kts 290°
2026-05-06 02:56 51.12950 -114.00819 3567 ft 2 kts 290°
2026-05-06 02:56 51.12947 -114.00792 3567 ft 3 kts 272°
2026-05-06 02:56 51.12949 -114.00761 3567 ft 3 kts 253°
2026-05-06 02:56 51.12958 -114.00732 3567 ft 3 kts 234°
2026-05-06 02:57 51.12964 -114.00721 3567 ft 0 kts 226°
2026-05-06 02:59 51.12953 -114.00730 3567 ft 7 kts 194°
2026-05-06 02:59 51.12895 -114.00741 3567 ft 2 kts 190°
2026-05-06 02:59 51.12869 -114.00745 3567 ft 7 kts 184°
2026-05-06 02:59 51.12841 -114.00747 3567 ft 3 kts 181°
2026-05-06 03:00 51.12778 -114.00749 3567 ft 9 kts 181°
2026-05-06 03:00 51.12749 -114.00777 3567 ft 5 kts 238°
2026-05-06 03:00 51.12713 -114.00823 3567 ft 4 kts 192°
2026-05-06 03:00 51.12690 -114.00826 3567 ft 8 kts 182°
2026-05-06 03:01 51.12621 -114.00827 3567 ft 8 kts 196°
2026-05-06 03:01 51.12599 -114.00877 3567 ft 10 kts 258°
2026-05-06 03:01 51.12597 -114.00970 3567 ft 17 kts 267°
2026-05-06 03:01 51.12596 -114.01119 3567 ft 8 kts 271°
2026-05-06 03:02 51.12596 -114.01194 3567 ft 11 kts 271°
2026-05-06 03:02 51.12595 -114.01347 3567 ft 15 kts 270°
2026-05-06 03:02 51.12580 -114.01487 3567 ft 12 kts 235°
2026-05-06 03:02 51.12520 -114.01555 3567 ft 11 kts 190°
2026-05-06 03:03 51.12419 -114.01562 3567 ft 18 kts 181°
2026-05-06 03:03 51.12292 -114.01562 3567 ft 17 kts 178°
2026-05-06 03:03 51.12220 -114.01562 3567 ft 4 kts 180°
2026-05-06 03:03 51.12172 -114.01563 3567 ft 16 kts 180°
2026-05-06 03:04 51.12028 -114.01692 3567 ft 33 kts 218°
2026-05-06 03:04 51.11827 -114.01779 3567 ft 26 kts 178°
2026-05-06 03:04 51.11682 -114.01776 3567 ft 20 kts 180°
2026-05-06 03:04 51.11553 -114.01778 3567 ft 17 kts 180°
2026-05-06 03:05 51.11445 -114.01779 3567 ft 14 kts 180°
2026-05-06 03:05 51.11356 -114.01779 3567 ft 12 kts 180°
2026-05-06 03:05 51.11282 -114.01779 3567 ft 9 kts 180°
2026-05-06 03:05 51.11223 -114.01779 3567 ft 10 kts 180°
2026-05-06 03:06 51.11098 -114.01777 3567 ft 25 kts 179°
2026-05-06 03:06 51.10911 -114.01777 3567 ft 28 kts 180°
2026-05-06 03:06 51.10720 -114.01777 3567 ft 27 kts 180°
2026-05-06 03:06 51.10531 -114.01777 3567 ft 27 kts 180°
2026-05-06 03:07 51.10348 -114.01776 3567 ft 26 kts 180°
2026-05-06 03:07 51.10169 -114.01776 3567 ft 26 kts 180°
2026-05-06 03:07 51.10008 -114.01775 3567 ft 20 kts 179°
2026-05-06 03:07 51.09850 -114.01775 3567 ft 23 kts 180°
2026-05-06 03:08 51.09723 -114.01779 3567 ft 12 kts 195°
2026-05-06 03:08 51.09702 -114.01880 3567 ft 12 kts 271°
2026-05-06 03:08 51.09702 -114.02004 3567 ft 9 kts 269°
2026-05-06 03:08 51.09718 -114.02128 3567 ft 11 kts 339°
2026-05-06 03:09 51.09914 -114.02135 3567 ft 53 kts
2026-05-06 03:09 51.10490 -114.02129 3567 ft 113 kts
2026-05-06 03:09 51.11480 -114.02124 3568 ft 171 kts
2026-05-06 03:09 51.12877 -114.02131 3673 ft 227 kts
2026-05-06 03:10 51.14547 -114.02160 4523 ft 254 kts
2026-05-06 03:10 51.16396 -114.02253 5077 ft 272 kts 359°
2026-05-06 03:10 51.18222 -114.02395 5632 ft 252 kts 358°
2026-05-06 03:10 51.19956 -114.02526 6222 ft 255 kts 358°
2026-05-06 03:11 51.21746 -114.02650 6823 ft 259 kts 358°
2026-05-06 03:11 51.23604 -114.02768 6967 ft 272 kts 358°
2026-05-06 03:11 51.25481 -114.02880 7046 ft 269 kts 358°
2026-05-06 03:11 51.27354 -114.02990 7124 ft 267 kts 358°
2026-05-06 03:12 51.29208 -114.03039 7197 ft 267 kts
2026-05-06 03:12 51.31063 -114.02813 7283 ft 268 kts
2026-05-06 03:12 51.32923 -114.02465 7365 ft 272 kts
2026-05-06 03:12 51.34817 -114.02069 7446 ft 274 kts
2026-05-06 03:13 51.36706 -114.01612 7525 ft 275 kts 10°
2026-05-06 03:13 51.37942 -114.01226 7744 ft 267 kts 12°
2026-05-06 03:13 51.39746 -114.00605 8359 ft 267 kts 13°
2026-05-06 03:13 51.41591 -113.99940 8971 ft 276 kts 13°
2026-05-06 03:14 51.43507 -113.99231 9591 ft 291 kts 13°
2026-05-06 03:14 51.45547 -113.98461 10204 ft 311 kts 12°
2026-05-06 03:14 51.47730 -113.97680 10815 ft 328 kts 10°
2026-05-06 03:14 51.49992 -113.96911 11434 ft 343 kts
2026-05-06 03:15 51.52379 -113.96123 12054 ft 357 kts
2026-05-06 03:15 51.54841 -113.95327 12668 ft 363 kts
2026-05-06 03:15 51.57306 -113.94529 13276 ft 359 kts
2026-05-06 03:15 51.59749 -113.93693 13873 ft 358 kts
2026-05-06 03:16 51.62171 -113.92805 14476 ft 357 kts 10°
2026-05-06 03:16 51.64591 -113.91883 15077 ft 358 kts 11°
2026-05-06 03:16 51.67015 -113.90938 15680 ft 358 kts 11°
2026-05-06 03:16 51.69436 -113.89981 16281 ft 359 kts 11°
2026-05-06 03:17 51.71863 -113.89014 16883 ft 360 kts 11°
2026-05-06 03:17 51.74306 -113.88037 17488 ft 361 kts 11°
2026-05-06 03:17 51.76740 -113.87059 18089 ft 362 kts 12°
2026-05-06 03:17 51.79185 -113.86074 18690 ft 362 kts 11°
2026-05-06 03:18 51.81595 -113.85102 19281 ft 363 kts 12°
2026-05-06 03:18 51.84060 -113.84106 19884 ft 365 kts 11°
2026-05-06 03:18 51.86520 -113.83112 20485 ft 365 kts 11°
2026-05-06 03:18 51.88989 -113.82113 21086 ft 365 kts 11°
2026-05-06 03:19 51.91452 -113.81115 21687 ft 364 kts 11°
2026-05-06 03:19 51.93905 -113.80121 22287 ft 363 kts 11°
2026-05-06 03:19 51.96350 -113.79129 22887 ft 361 kts 11°
2026-05-06 03:19 51.98821 -113.78127 23078 ft 371 kts 11°
2026-05-06 03:20 52.03972 -113.76047 23143 ft 390 kts 11°
2026-05-06 03:20 52.06609 -113.74978 23141 ft 390 kts 11°
2026-05-06 03:20 52.09239 -113.73907 23138 ft 388 kts 11°
2026-05-06 03:21 52.11811 -113.72854 22721 ft 372 kts 11°
2026-05-06 03:21 52.14225 -113.71858 22277 ft 353 kts 11°
2026-05-06 03:21 52.16551 -113.70896 21827 ft 338 kts 11°
2026-05-06 03:21 52.18829 -113.69955 21370 ft 328 kts 11°
2026-05-06 03:22 52.20988 -113.69067 20929 ft 321 kts 11°
2026-05-06 03:22 52.23139 -113.68184 20482 ft 317 kts 11°
2026-05-06 03:22 52.25258 -113.67316 20038 ft 313 kts 11°
2026-05-06 03:22 52.27371 -113.66450 19591 ft 310 kts 11°
2026-05-06 03:23 52.29456 -113.65596 19235 ft 306 kts 11°
2026-05-06 03:23 52.31507 -113.64754 18930 ft 303 kts 11°
2026-05-06 03:23 52.33556 -113.63912 18628 ft 302 kts 11°
2026-05-06 03:23 52.35596 -113.63074 18327 ft 301 kts 11°
2026-05-06 03:24 52.37625 -113.62239 18027 ft 301 kts 11°
2026-05-06 03:24 52.39651 -113.61404 17726 ft 300 kts 11°
2026-05-06 03:24 52.41670 -113.60570 17426 ft 299 kts 11°
2026-05-06 03:24 52.43689 -113.59735 17124 ft 298 kts 11°
2026-05-06 03:25 52.45673 -113.58913 16828 ft 298 kts 11°
2026-05-06 03:25 52.47711 -113.58069 16523 ft 297 kts 11°
2026-05-06 03:25 52.49688 -113.57248 16226 ft 297 kts 11°
2026-05-06 03:25 52.51687 -113.56418 15926 ft 296 kts 11°
2026-05-06 03:26 52.53683 -113.55588 15626 ft 296 kts 11°
2026-05-06 03:26 52.55676 -113.54759 15326 ft 296 kts 11°
2026-05-06 03:26 52.57669 -113.53928 15025 ft 295 kts 11°
2026-05-06 03:26 52.59672 -113.53190 14724 ft 294 kts
2026-05-06 03:27 52.61689 -113.52773 14427 ft 292 kts
2026-05-06 03:27 52.63720 -113.52575 14126 ft 291 kts
2026-05-06 03:27 52.65745 -113.52517 13828 ft 291 kts 358°
2026-05-06 03:27 52.67764 -113.52549 13530 ft 290 kts 357°
2026-05-06 03:28 52.69783 -113.52637 13230 ft 290 kts 356°
2026-05-06 03:28 52.71794 -113.52758 12926 ft 290 kts 356°
2026-05-06 03:28 52.73810 -113.52900 12625 ft 289 kts 355°
2026-05-06 03:28 52.75820 -113.53054 12328 ft 289 kts 355°
2026-05-06 03:29 52.77826 -113.53215 12028 ft 289 kts 355°
2026-05-06 03:29 52.79829 -113.53379 11727 ft 289 kts 355°
2026-05-06 03:29 52.81842 -113.53548 11425 ft 289 kts 355°
2026-05-06 03:29 52.83852 -113.53719 11125 ft 290 kts 355°
2026-05-06 03:30 52.85847 -113.53887 10825 ft 290 kts 356°
2026-05-06 03:30 52.87868 -113.54058 10526 ft 291 kts 356°
2026-05-06 03:30 52.89896 -113.54229 10226 ft 293 kts 356°
2026-05-06 03:30 52.91936 -113.54400 9925 ft 294 kts 356°
2026-05-06 03:31 52.93983 -113.54571 9625 ft 295 kts 356°
2026-05-06 03:31 52.96011 -113.54741 9319 ft 287 kts 356°
2026-05-06 03:31 52.97983 -113.54905 9013 ft 279 kts 356°
2026-05-06 03:31 52.99905 -113.55065 8709 ft 274 kts 356°
2026-05-06 03:32 53.01809 -113.55231 8406 ft 271 kts 356°
2026-05-06 03:32 53.03673 -113.55442 8250 ft 266 kts 355°
2026-05-06 03:32 53.05507 -113.55695 8169 ft 263 kts 355°
2026-05-06 03:32 53.07306 -113.55976 8147 ft 262 kts 354°
2026-05-06 03:33 53.09125 -113.56284 8141 ft 263 kts 354°
2026-05-06 03:33 53.10962 -113.56609 8139 ft 264 kts 354°
2026-05-06 03:33 53.12790 -113.56943 8134 ft 265 kts 354°
2026-05-06 03:33 53.14623 -113.57287 8129 ft 265 kts 353°
2026-05-06 03:34 53.16413 -113.58038 8128 ft 265 kts 341°
2026-05-06 03:34 53.18079 -113.59378 8132 ft 267 kts 330°
2026-05-06 03:34 53.19619 -113.61137 7882 ft 271 kts 323°
2026-05-06 03:34 53.21025 -113.63169 7439 ft 263 kts 317°
2026-05-06 03:35 53.22273 -113.65252 7227 ft 248 kts 314°
2026-05-06 03:35 53.23424 -113.67267 7145 ft 236 kts 313°
2026-05-06 03:35 53.24537 -113.69236 7129 ft 231 kts 313°
2026-05-06 03:35 53.25645 -113.71182 7128 ft 230 kts 313°
2026-05-06 03:36 53.26760 -113.73109 7129 ft 231 kts 314°
2026-05-06 03:36 53.27888 -113.75024 7129 ft 232 kts 314°
2026-05-06 03:36 53.29023 -113.76932 7129 ft 231 kts 315°
2026-05-06 03:36 53.30173 -113.78861 6850 ft 236 kts 315°
2026-05-06 03:37 53.31326 -113.80794 6548 ft 233 kts 315°
2026-05-06 03:37 53.32456 -113.82690 6244 ft 229 kts 315°
2026-05-06 03:37 53.33570 -113.84564 5940 ft 225 kts 314°
2026-05-06 03:37 53.34672 -113.86419 5638 ft 223 kts 315°
2026-05-06 03:38 53.35950 -113.87840 5255 ft 223 kts 339°
2026-05-06 03:38 53.37454 -113.87815 5093 ft 218 kts 14°
2026-05-06 03:38 53.38784 -113.86601 5075 ft 222 kts 34°
2026-05-06 03:38 53.39996 -113.85004 5009 ft 219 kts 41°
2026-05-06 03:39 53.41052 -113.83272 4973 ft 212 kts 52°
2026-05-06 03:39 53.41494 -113.81016 4969 ft 203 kts 86°
2026-05-06 03:39 53.41086 -113.78746 5060 ft 209 kts 115°
2026-05-06 03:39 53.40240 -113.76709 5043 ft 215 kts 127°
2026-05-06 03:40 53.39432 -113.74576 4762 ft 217 kts 120°
2026-05-06 03:40 53.38640 -113.72495 4501 ft 209 kts 126°
2026-05-06 03:40 53.37655 -113.70810 4233 ft 193 kts 137°
2026-05-06 03:40 53.36632 -113.69475 3992 ft 181 kts 141°
2026-05-06 03:41 53.35691 -113.68113 3766 ft 177 kts 137°
2026-05-06 03:41 53.34845 -113.66650 3554 ft 174 kts 133°
2026-05-06 03:41 53.34002 -113.65183 3326 ft 174 kts 134°
2026-05-06 03:41 53.33138 -113.63770 3096 ft 174 kts 135°
2026-05-06 03:42 53.32292 -113.62367 2877 ft 167 kts 134°
2026-05-06 03:42 53.31508 -113.61038 2647 ft 156 kts 134°
2026-05-06 03:42 53.30743 -113.59749 2470 ft 150 kts 134°
2026-05-06 03:42 53.30099 -113.58668 2383 ft 88 kts 134°
2026-05-06 03:43 53.29887 -113.58336 2383 ft 22 kts 139°
2026-05-06 03:43 53.29894 -113.58214 2383 ft 22 kts
2026-05-06 03:43 53.29999 -113.58204 2383 ft 6 kts 359°
2026-05-06 03:43 53.30067 -113.58206 2383 ft 16 kts 358°
2026-05-06 03:44 53.30142 -113.58282 2383 ft 12 kts 315°
2026-05-06 03:44 53.30213 -113.58370 2383 ft 13 kts 11°
2026-05-06 03:44 53.30277 -113.58280 2383 ft 14 kts 47°
2026-05-06 03:44 53.30345 -113.58213 2383 ft 8 kts 34°
2026-05-06 03:45 53.30403 -113.58139 2383 ft 5 kts 31°
2026-05-06 03:45 53.30414 -113.58128 2383 ft 2 kts 29°
2026-05-06 03:45 53.30415 -113.58128 2383 ft 0 kts 29°
2026-05-06 03:47 51.12952 -114.00827 3557 ft 0 kts 290°